Rugby, ND

12:16 AM CDT on September 22, 2017 (GMT -0500)
Rugby Municipal

Weather History for KRUG - July, 2013

Change the Weather History Date:

Thursday, July 11, 2013

  Actual Average Record
Temperature  
Mean Temperature 73 °F -  
Max Temperature 86 °F 82 °F 100 °F (1957)
Min Temperature 60 °F 57 °F 40 °F (1992)
Cooling Degree Days 8    
Growing Degree Days 23 (Base 50)    
Moisture  
Dew Point 64 °F    
Average Humidity 71    
Maximum Humidity 89    
Minimum Humidity 58    
Precipitation  
Precipitation 0.00 in - - ()
Sea Level Pressure  
Sea Level Pressure 29.84 in    
Wind  
Wind Speed 10 mph (SSE)    
Max Wind Speed 17 mph    
Max Gust Speed 23 mph    
Visibility 10 miles    
Events      
Averages and records for this station are not official NWS values.
T = Trace of Precipitation, MM = Missing Value Source: NWS Daily Summary

Daily Weather History Graph

Daily Weather History Graph

Search for Another Location

Airport or City:

Trip Planner

Search our weather history database for the weather conditions in past years. The results will help you decide how hot, cold, wet, or windy it might be!

Date:

Astronomy

Jul. 11, 2013 Rise Set
Actual Time 5:50 AM CDT 9:39 PM CDT
Civil Twilight 5:10 AM CDT 10:19 PM CDT
Nautical Twilight 4:15 AM CDT 11:14 PM CDT
Astronomical Twilight 2:51 AM CDT 12:36 AM CDT
Moon 9:31 AM CDT (7/11) 10:58 PM CDT (7/11)
Length of Visible Light 17h 09m
Length of Day
15h 48m
Waxing Crescent, 11% of the Moon is Illuminated
Jul 11
Waxing Crescent
Jul 15
First Quarter
Jul 22
Full
Jul 29
Last Quarter
Aug 6
New

Hourly Weather History & Observations

Time (CDT) Temp. Heat Index Dew Point Humidity Pressure Visibility Wind Dir Wind Speed Gust Speed Precip Events Conditions
12:15 AM 64.4 °F - 57.2 °F 77% 29.99 in 10.0 mi SSE 5.8 mph - N/A   Clear
12:35 AM 64.4 °F - 57.2 °F 77% 29.99 in 10.0 mi South 6.9 mph - N/A   Clear
12:55 AM 64.4 °F - 57.2 °F 77% 29.98 in 10.0 mi South 6.9 mph - N/A   Clear
1:15 AM 64.4 °F - 57.2 °F 77% 29.98 in 10.0 mi SSE 8.1 mph - N/A   Clear
1:35 AM 64.4 °F - 57.2 °F 77% 29.98 in 10.0 mi SSE 8.1 mph - N/A   Clear
1:55 AM 64.4 °F - 57.2 °F 77% 29.98 in 10.0 mi SSE 6.9 mph - N/A   Clear
2:15 AM 62.6 °F - 55.4 °F 77% 29.98 in 10.0 mi SSE 5.8 mph - N/A   Clear
2:35 AM 62.6 °F - 55.4 °F 77% 29.97 in 10.0 mi SSE 8.1 mph - N/A   Clear
2:55 AM 62.6 °F - 55.4 °F 77% 29.97 in 10.0 mi SSE 6.9 mph - N/A   Clear
3:15 AM 60.8 °F - 55.4 °F 82% 29.97 in 10.0 mi SSE 6.9 mph - N/A   Clear
3:35 AM 62.6 °F - 55.4 °F 77% 29.97 in 10.0 mi SSE 8.1 mph - N/A   Clear
3:55 AM 62.6 °F - 55.4 °F 77% 29.97 in 10.0 mi SSE 9.2 mph - N/A   Clear
4:15 AM 62.6 °F - 55.4 °F 77% 29.96 in 10.0 mi SSE 8.1 mph - N/A   Clear
4:35 AM 62.6 °F - 55.4 °F 77% 29.96 in 10.0 mi SSE 9.2 mph - N/A   Clear
4:55 AM 62.6 °F - 55.4 °F 77% 29.95 in 10.0 mi SSE 9.2 mph - N/A   Clear
5:15 AM 62.6 °F - 55.4 °F 77% 29.95 in 10.0 mi SSE 9.2 mph - N/A   Clear
5:35 AM 60.8 °F - 55.4 °F 82% 29.95 in 10.0 mi SSE 6.9 mph - N/A   Clear
5:55 AM 60.8 °F - 55.4 °F 82% 29.94 in 10.0 mi SSE 6.9 mph - N/A   Clear
6:15 AM 60.8 °F - 55.4 °F 82% 29.94 in 10.0 mi SSE 8.1 mph - N/A   Clear
6:35 AM 62.6 °F - 57.2 °F 82% 29.94 in 10.0 mi SSE 8.1 mph - N/A   Clear
6:55 AM 62.6 °F - 57.2 °F 82% 29.94 in 10.0 mi SSE 9.2 mph - N/A   Partly Cloudy
7:15 AM 64.4 °F - 59.0 °F 83% 29.93 in 10.0 mi SSE 9.2 mph - N/A   Partly Cloudy
7:35 AM 66.2 °F - 59.0 °F 78% 29.93 in 10.0 mi SSE 11.5 mph 16.1 mph N/A   Clear
7:55 AM 66.2 °F - 59.0 °F 78% 29.93 in 10.0 mi SSE 12.7 mph - N/A   Clear
8:15 AM 66.2 °F - 59.0 °F 78% 29.93 in 10.0 mi South 12.7 mph 17.3 mph N/A   Clear
8:35 AM 68.0 °F - 59.0 °F 73% 29.92 in 10.0 mi SSE 11.5 mph - N/A   Clear
8:55 AM 69.8 °F - 59.0 °F 68% 29.92 in 10.0 mi South 13.8 mph 18.4 mph N/A   Clear
9:15 AM 71.6 °F - 60.8 °F 69% 29.91 in 10.0 mi South 11.5 mph 18.4 mph N/A   Clear
9:35 AM 71.6 °F - 62.6 °F 73% 29.90 in 10.0 mi South 11.5 mph 16.1 mph N/A   Partly Cloudy
9:55 AM 73.4 °F - 62.6 °F 69% 29.89 in 10.0 mi SSE 12.7 mph 19.6 mph N/A   Clear
10:15 AM 73.4 °F - 62.6 °F 69% 29.89 in 10.0 mi SSE 13.8 mph 17.3 mph N/A   Clear
10:35 AM 75.2 °F - 62.6 °F 65% 29.88 in 10.0 mi SSE 16.1 mph 19.6 mph N/A   Clear
10:55 AM 75.2 °F - 62.6 °F 65% 29.87 in 10.0 mi SSE 12.7 mph 18.4 mph N/A   Clear
11:15 AM 75.2 °F - 62.6 °F 65% 29.87 in 10.0 mi SSE 15.0 mph 20.7 mph N/A   Clear
11:35 AM 77.0 °F - 64.4 °F 65% 29.87 in 10.0 mi SSE 12.7 mph 18.4 mph N/A   Clear
11:55 AM 78.8 °F - 64.4 °F 61% 29.86 in 10.0 mi SSE 17.3 mph 21.9 mph N/A   Clear
12:15 PM 78.8 °F - 64.4 °F 61% 29.85 in 10.0 mi SSE 16.1 mph 19.6 mph N/A   Clear
12:35 PM 80.6 °F 82.3 °F 64.4 °F 58% 29.85 in 10.0 mi SSE 13.8 mph 20.7 mph N/A   Clear
12:55 PM 80.6 °F 82.3 °F 64.4 °F 58% 29.84 in 10.0 mi SSE 15.0 mph 21.9 mph N/A   Clear
1:15 PM 80.6 °F 82.7 °F 66.2 °F 61% 29.83 in 10.0 mi SSE 16.1 mph 20.7 mph N/A   Clear
1:35 PM 82.4 °F 84.6 °F 66.2 °F 58% 29.82 in 10.0 mi SSE 13.8 mph 21.9 mph N/A   Clear
1:55 PM 82.4 °F 85.4 °F 68.0 °F 62% 29.81 in 10.0 mi SSE 15.0 mph 20.7 mph N/A   Clear
2:15 PM 84.2 °F 87.3 °F 68.0 °F 58% 29.80 in 10.0 mi SSE 11.5 mph 20.7 mph N/A   Clear
2:35 PM 84.2 °F 87.3 °F 68.0 °F 58% 29.79 in 10.0 mi SSE 17.3 mph - N/A   Clear
2:55 PM 84.2 °F 88.4 °F 69.8 °F 62% 29.78 in 10.0 mi SSE 16.1 mph 23.0 mph N/A   Clear
3:15 PM 84.2 °F 88.4 °F 69.8 °F 62% 29.79 in 10.0 mi South 13.8 mph 20.7 mph N/A   Clear
3:35 PM 84.2 °F 87.3 °F 68.0 °F 58% 29.78 in 10.0 mi SSE 13.8 mph 20.7 mph N/A   Clear
3:55 PM 84.2 °F 88.4 °F 69.8 °F 62% 29.77 in 10.0 mi South 15.0 mph 19.6 mph N/A   Clear
4:15 PM 86.0 °F 90.4 °F 69.8 °F 58% 29.77 in 10.0 mi South 15.0 mph 20.7 mph N/A   Clear
4:35 PM 86.0 °F 91.8 °F 71.6 °F 62% 29.77 in 10.0 mi South 13.8 mph 20.7 mph N/A   Clear
4:55 PM 86.0 °F 91.8 °F 71.6 °F 62% 29.76 in 10.0 mi South 12.7 mph 18.4 mph N/A   Clear
5:15 PM 86.0 °F 90.4 °F 69.8 °F 58% 29.75 in 10.0 mi SSE 13.8 mph 19.6 mph N/A   Clear
5:35 PM 86.0 °F 90.4 °F 69.8 °F 58% 29.74 in 10.0 mi SSE 11.5 mph 20.7 mph N/A   Clear
5:55 PM 86.0 °F 91.8 °F 71.6 °F 62% 29.72 in 10.0 mi SSE 12.7 mph - N/A   Clear
6:15 PM 86.0 °F 91.8 °F 71.6 °F 62% 29.71 in 10.0 mi SSE 13.8 mph 18.4 mph N/A   Clear
6:35 PM 86.0 °F 91.8 °F 71.6 °F 62% 29.70 in 10.0 mi SSE 13.8 mph 20.7 mph N/A   Clear
6:55 PM 86.0 °F 91.8 °F 71.6 °F 62% 29.70 in 10.0 mi SSE 13.8 mph 19.6 mph N/A   Clear
7:15 PM 86.0 °F 91.8 °F 71.6 °F 62% 29.69 in 10.0 mi SSE 11.5 mph - N/A   Clear
7:35 PM 86.0 °F 91.8 °F 71.6 °F 62% 29.69 in 10.0 mi SSE 9.2 mph - N/A   Clear
7:55 PM 84.2 °F 90.9 °F 73.4 °F 70% 29.69 in 10.0 mi SSE 9.2 mph - N/A   Clear
8:15 PM 84.2 °F 90.9 °F 73.4 °F 70% 29.69 in 10.0 mi SSE 6.9 mph - N/A   Clear
8:35 PM 82.4 °F 88.2 °F 73.4 °F 74% 29.69 in 10.0 mi SSE 8.1 mph - N/A   Clear
8:55 PM 82.4 °F 88.2 °F 73.4 °F 74% 29.69 in 10.0 mi SSE 9.2 mph - N/A   Clear
9:15 PM 82.4 °F 88.2 °F 73.4 °F 74% 29.69 in 10.0 mi SSE 10.4 mph - N/A   Clear
9:35 PM 80.6 °F 84.6 °F 71.6 °F 74% 29.70 in 10.0 mi SSE 9.2 mph - N/A   Clear
9:55 PM 80.6 °F 84.6 °F 71.6 °F 74% 29.72 in 10.0 mi SSE 4.6 mph - N/A   Clear
10:15 PM 77.0 °F - 73.4 °F 89% 29.76 in 10.0 mi SW 3.5 mph - N/A   Clear
10:35 PM 77.0 °F - 73.4 °F 89% 29.75 in 10.0 mi SSE 4.6 mph - N/A   Clear
10:55 PM 77.0 °F - 73.4 °F 89% 29.74 in 10.0 mi SSE 5.8 mph - N/A   Partly Cloudy
11:15 PM 75.2 °F - 71.6 °F 89% 29.70 in 10.0 mi ESE 8.1 mph - N/A   Clear
11:35 PM 77.0 °F - 71.6 °F 83% 29.68 in 10.0 mi SE 8.1 mph - N/A   Clear
11:55 PM 77.0 °F - 71.6 °F 83% 29.69 in 10.0 mi SSE 9.2 mph - N/A   Clear